Vorticity
4 4 4 2 2 3 3 3 2 -0 -2 2 0 1 1 3 2 1 2 3 3 3 3 4 5 5 5 5 5 6 4 4 5
5 3 4 3 2 3 2 3 3 2 3 3 3 5 7 6 5 4 4 4 4 4 4 4 5 5 5 6 7 6 5 5 5
6 4 6 4 3 4 4 6 6 7 8 8 7 5 5 4 5 5 5 5 4 4 5 5 5 5 5 6 7 6 7 7 5
6 5 5 6 5 6 5 5 6 5 4 5 7 8 9 7 5 6 4 4 5 4 4 4 5 5 5 5 6 7 7 7 7
6 4 5 5 4 4 4 6 8 8 10 10 9 8 9 8 9 9 10 7 6 6 6 4 5 5 4 5 4 5 5 6 6
6 6 4 6 8 8 8 9 8 9 9 10 8 9 8 9 9 9 9 11 10 8 9 8 6 6 5 4 4 5 4 4 5
5 7 7 5 5 6 8 10 12 9 7 7 8 7 6 5 5 5 6 7 9 10 9 8 9 9 9 8 7 6 5 4 5
10 7 6 5 6 7 7 3 4 4 3 2 2 3 5 4 4 3 3 5 3 4 7 8 8 8 9 9 11 11 12 11 10
6 6 6 5 6 5 4 4 4 7 6 6 2 2 3 4 4 4 4 4 4 4 4 4 7 9 6 4 6 7 7 4 3
5 4 5 3 4 3 3 2 -0 -1 3 3 1 3 1 4 1 4 2 4 6 6 5 6 4 1 6 9 7 3 3 3 3
4 2 3 4 3 3 2 2 1 -0 0 3 2 1 1 3 2 0 2 -0 3 4 4 5 7 5 4 3 3 5 7 6 5
2 1 1 1 1 1 2 2 1 -0 0 0 -2 1 2 4 4 2 2 2 5 3 2 4 6 4 5 4 2 4 6 4 3
1 0 0 1 3 3 1 -0 1 3 1 1 2 3 3 2 4 5 6 1 -1 4 2 -0 2 6 3 4 4 1 3 4 4
2 1 2 2 2 2 4 1 3 5 6 4 0 5 4 0 3 4 7 -1 6 1 4 2 2 2 4 3 5 2 4 3 3
1 0 2 5 4 4 2 2 3 2 2 4 -0 0 1 10 -3 1 3 12 8 1 3 3 4 3 3 4 4 4 4 4 6
0 2 0 -4 -5 2 7 6 -2 1 1 1 8 12 8 -2 -1 -11 0 2 1 10 3 4 3 4 1 3 6 5 2 3 5
0 5 5 3 10 2 1 -2 2 -2 3 7 2 4 -4 -0 4 -11 16 7 5 2 6 4 2 2 4 4 3 4 3 -1 6
0 -0 1 6 -2 -9 -12 14 5 7 2 -0 -2 5 7 4 4 -1 6 10 1 2 8 5 4 5 4 4 4 3 -3 4 -1
-0 1 1 3 8 9 6 -5 12 7 4 7 1 6 5 6 -2 7 1 1 4 6 7 5 5 6 5 4 4 -3 14 7 5
1 0 2 3 -1 5 4 11 -8 -1 -0 -1 10 -17 -3 -6 -7 6 5 -18 17 10 5 4 5 4 5 3 3 4 2 6 -2
Height
5886 5888 5889 5890 5891 5894 5895 5896 5896 5897 5897 5896 5896 5895 5895 5894 5893 5892 5890 5888 5886 5884 5883 5881 5879 5878 5876 5874 5872 5870 5867 5865 5863
5883 5886 5887 5889 5890 5892 5894 5894 5895 5896 5895 5895 5895 5894 5893 5892 5892 5891 5889 5887 5886 5884 5883 5881 5879 5878 5876 5875 5873 5870 5868 5865 5863
5881 5884 5885 5887 5888 5890 5891 5892 5893 5894 5894 5894 5893 5893 5892 5891 5891 5890 5889 5887 5885 5884 5883 5881 5879 5878 5876 5874 5873 5871 5869 5866 5864
5878 5880 5883 5885 5886 5888 5888 5890 5891 5892 5892 5892 5892 5891 5891 5890 5890 5889 5888 5886 5885 5884 5882 5880 5879 5877 5875 5874 5872 5870 5869 5866 5864
5875 5878 5879 5882 5884 5886 5887 5888 5889 5889 5889 5890 5889 5889 5889 5889 5888 5888 5888 5886 5885 5883 5881 5879 5878 5876 5874 5873 5871 5869 5868 5866 5864
5873 5875 5877 5879 5882 5883 5885 5886 5887 5887 5888 5888 5887 5887 5888 5888 5888 5887 5887 5886 5884 5883 5881 5879 5877 5875 5874 5872 5870 5869 5867 5865 5863
5870 5873 5875 5877 5879 5881 5882 5883 5884 5885 5886 5887 5887 5887 5886 5887 5886 5886 5886 5885 5884 5882 5880 5878 5877 5874 5873 5871 5869 5867 5866 5864 5862
5866 5869 5872 5874 5876 5878 5879 5881 5882 5883 5884 5885 5886 5886 5886 5886 5885 5885 5885 5884 5883 5882 5880 5877 5875 5874 5872 5870 5869 5866 5865 5863 5861
5862 5865 5868 5871 5873 5875 5876 5878 5880 5881 5882 5883 5884 5885 5885 5885 5885 5883 5882 5882 5881 5880 5879 5877 5875 5873 5872 5870 5868 5866 5865 5862 5860
5859 5861 5864 5867 5869 5871 5873 5875 5877 5879 5880 5881 5882 5882 5883 5883 5883 5882 5880 5879 5879 5878 5877 5875 5874 5873 5870 5868 5867 5865 5863 5860 5858
5855 5858 5860 5863 5866 5868 5871 5872 5874 5876 5877 5878 5879 5879 5880 5880 5880 5879 5879 5876 5876 5875 5874 5873 5872 5870 5868 5866 5864 5862 5859 5858 5856
5851 5854 5857 5860 5862 5865 5867 5869 5870 5872 5874 5874 5875 5875 5876 5876 5876 5876 5875 5874 5873 5872 5871 5869 5868 5866 5865 5863 5861 5858 5856 5854 5852
5846 5850 5853 5855 5858 5861 5863 5865 5866 5867 5869 5870 5870 5870 5871 5871 5871 5872 5871 5869 5868 5868 5866 5865 5864 5863 5861 5859 5857 5854 5852 5849 5847
5839 5844 5847 5851 5853 5856 5858 5859 5861 5863 5864 5865 5865 5866 5865 5866 5865 5865 5866 5864 5863 5862 5861 5859 5858 5857 5856 5854 5852 5850 5848 5845 5843
5832 5836 5840 5843 5846 5849 5851 5854 5855 5856 5858 5858 5859 5859 5859 5860 5859 5859 5858 5858 5857 5856 5856 5854 5852 5851 5849 5848 5846 5844 5842 5840 5838
5825 5829 5834 5835 5839 5842 5845 5846 5848 5849 5851 5852 5851 5852 5852 5853 5852 5852 5852 5851 5850 5849 5848 5847 5846 5845 5843 5841 5839 5837 5836 5834 5832
5817 5822 5826 5829 5831 5834 5837 5839 5840 5842 5843 5844 5844 5845 5845 5845 5844 5844 5844 5843 5842 5842 5841 5840 5838 5836 5835 5834 5832 5830 5828 5826 5823
5808 5814 5818 5821 5824 5826 5828 5831 5832 5833 5835 5835 5836 5836 5837 5835 5836 5835 5835 5834 5833 5833 5833 5831 5830 5828 5827 5825 5823 5821 5820 5818 5816
5800 5805 5809 5812 5815 5817 5818 5821 5822 5824 5825 5825 5826 5827 5827 5826 5826 5826 5825 5824 5824 5824 5824 5822 5821 5819 5817 5815 5814 5812 5810 5808 5807
5790 5794 5798 5801 5805 5807 5808 5810 5813 5814 5816 5816 5816 5816 5818 5817 5816 5816 5816 5814 5813 5813 5814 5812 5810 5809 5807 5805 5804 5802 5800 5797 5796